Location: Binningen
(47.7924°N, 8.7261°E)
Time: 08:25:08
(UTC+00:00)

BREEZE-M DEB (TANK) - Pass Details

Date: 17 May 2021
Orbit: 284 x 18730 km, 52.5° (Epoch: 20 June)

Event Time Altitude Azimuth Distance (km) Brightness Sun altitude
Rises 21:45:26 0° 280° (W) 5,539 8.4 -19.3°
Reaches altitude 10° 21:50:49 10° 286° (WNW) 2,990 7.0 -19.7°
Maximum altitude 21:56:02 40° 357° (N) 724 3.9 -20.0°
Enters shadow 21:57:34 19° 61° (ENE) 976 4.2 -20.1°
